Regional Weather Roundup
Issued by NWS State College, PA

Home | Current Version | Previous Version | Text Only | Print | Product List | Glossary Off
Versions: 1 2 3 4 5 6 7 8 9 10 11 12 13 14 15 16 17 18 19 20 21 22 23 24 25 26 27 28 29 30 31 32 33 34 35 36 37 38 39 40 41 42 43 44 45 46 47 48 49 50

000
ASUS41 KCTP 201003
RWRCTP

REGIONAL WEATHER ROUNDUP
NATIONAL WEATHER SERVICE STATE COLLEGE PA
600 AM EDT FRI APR 20 2018

Note: "fair" indicates few or no clouds below 12,000 feet with no
significant weather and/or obstructions to visibility.

* = STATION THAT DOES NOT REPORT PRECIPITATION /E.G. RAIN...SNOW...ETC/
    THUNDER OR FOG.

PAZ002>004-007>009-013>016-020>023-029>032-201100-
WESTERN PENNSYLVANIA

CITY           SKY/WX    TMP DP  RH WIND       PRES   REMARKS
ERIE           FAIR      34  26  72 NW7       30.32R
MEADVILLE      FAIR      28  25  88 NW6       30.29R
FRANKLIN*      FAIR      27  23  85 W6        30.28R
NEW CASTLE     FAIR      29  23  78 W5        30.34R
BEAVER COUNTY  NOT AVBL
BUTLER*        FAIR      28  22  78 W5        30.31R
PITTSBURGH INT FAIR      28  21  75 W10       30.31R
PITTSBURGH     FAIR      30  21  69 NW6       30.30R
INDIANA*       CLEAR     28  25  86 NW3       30.31R
LATROBE        FAIR      27  23  86 SW7       30.31R
WASHINGTON CO* FAIR      27  21  78 W8        30.36R
$$

PAZ004>006-010>012-017>019-024>028-033>037-041-042-045-046-049>053-201100-
CENTRAL PENNSYLVANIA

CITY           SKY/WX    TMP DP  RH WIND       PRES   REMARKS
BRADFORD       CLOUDY    28  20  71 NW15      30.18R
DUBOIS         FAIR      24  21  88 W7        30.21R
CLEARFIELD     FAIR      29  21  72 W7        30.22R
JOHNSTOWN      FAIR      26  21  81 NW15G23   30.19R WCI  14
ALTOONA        FAIR      32  20  61 NW8       30.22R
STATE COLLEGE  PTCLDY    32  21  64 NW10      30.20R
WILLIAMSPORT   CLOUDY    33  25  72 W9        30.20R
SELINSGROVE    CLOUDY    33  27  78 N7        30.22R
FT INDIANTOWN  MOCLDY    35  26  70 NW5       30.19R
CAPITAL CITY   FAIR      37  21  52 W9        30.21R
HARRISBURG     MOCLDY    36  22  56 NW14      30.21R
YORK           FAIR      32  22  66 W7        30.22R
$$

PAZ038>040-043-044-047-048-054-055-060>062-067>071-201100-
EASTERN PENNSYLVANIA

CITY           SKY/WX    TMP DP  RH WIND       PRES   REMARKS
SCRANTON       CLOUDY    31  23  72 NW10      30.14R
MOUNT POCONO   CLOUDY    26  20  77 NW16G26   30.05R WCI  14
ALLENTOWN      CLOUDY    36  21  54 NW14G25   30.15R
QUAKERTOWN*    CLOUDY    34  21  60 VRB6G13   30.15R
READING        FAIR      33  24  69 NW12      30.18R
LANCASTER      MOCLDY    35  25  66 NW10      30.20R
COATESVILLE    FAIR      34  23  64 NW13      30.18R
POTTSTOWN      FAIR      32  20  61 NW12G20   30.18R
BLUE BELL      FAIR      34  23  64 NW7       30.18R
DOYLESTOWN     MOCLDY    33  22  63 W6        30.14R
WILLOW GROVE   NOT AVBL
NORTH PHILA    FAIR      37  23  56 NW12      30.17R
PHILADELPHIA   FAIR      37  21  52 NW10      30.18R
$$




USA.gov is the U.S. government's official web portal to all federal, state and local government web resources and services.